Location: Unnamed
(47.6578°N, 23.5640°E)
Time: 22:22:05
(UTC+03:00)

ISS - Pass Details

Date: 02 May 2020
Orbit: 418 x 421 km, 51.6° (Epoch: 08 May)

Event Time Altitude Azimuth Distance (km) Brightness Sun altitude
Exits shadow 05:32:54 - 258° (WSW) 1,761 -1.2 -5.9°
Reaches altitude 10° 05:33:33 10° 259° (W) 1,496 -1.5 -5.8°
Maximum altitude 05:36:53 63° 342° (NNW) 473 -3.4 -5.3°
Drops below altitude 10° 05:40:14 10° 64° (ENE) 1,502 1.0 -4.8°
Sets 05:42:21 0° 68° (ENE) 2,369 2.7 -4.5°
